Terug naar catalogus

DELTA 1 DEB

ActiefSSO
NORAD 21351·DEBRIS·🇺🇸 United States

Gelanceerd Jun 12, 1975 vanaf Vandenberg Space Force Base

Loading…

Volgende Passages (komende 24 uur)

TLE

VersSource: Space-Track

Epoch: Sep 14, 2026, 19:42 UTC

1 21351U 75052BV  26257.82108205 -.00000001  00000-0  83527-4 0  9990
2 21351  99.8586  18.3808 0066170 103.8953  59.1563 13.31656067716131

Volg DELTA 1 DEB in realtime met AllMySat

Download on the App Store